RH
38 38 39 39 40 40 39 38 38 37 35 32 27 19 13 10 9 7 6 6 6 5 6 7 7 7 6 6 6 6 6 6 6 6 6 6 7 9 7 6 23 54 78 90 96 98 94 88 84 83 80 74 68 65 64 64 69 75 80 85 86 86 92 97 97 100 100 99 100 97 94 96 99 99 101 101 99 99 100 100 100 99 99 93 78
40 41 42 43 44 44 43 40 40 40 39 36 30 22 16 13 12 10 8 7 6 6 7 7 7 7 7 6 6 6 6 6 6 5 6 7 7 8 9 7 8 25 52 76 90 95 97 96 93 93 93 90 81 73 72 74 77 78 80 83 83 83 90 97 99 100 100 99 100 98 95 97 100 100 99 100 100 100 100 100 100 99 100 99 89
42 44 46 48 48 48 46 42 41 42 42 39 34 26 19 17 15 14 11 9 8 7 7 8 8 7 7 7 7 7 7 6 7 6 5 6 8 8 9 10 7 8 22 49 73 87 92 93 92 93 95 96 91 85 82 83 82 83 86 88 88 91 96 99 100 100 100 100 100 98 97 98 101 101 100 100 99 99 100 100 100 99 100 100 92
44 46 49 51 51 50 48 44 43 45 45 41 37 31 23 19 18 17 14 12 10 9 8 8 9 8 8 8 7 7 7 7 7 7 6 6 7 9 9 9 10 8 8 19 40 64 82 88 88 90 92 92 93 94 93 92 91 92 95 95 94 98 101 99 99 100 99 99 99 99 99 100 102 99 96 99 100 98 100 100 99 100 101 99 93
46 48 52 54 54 53 49 46 46 48 47 43 39 35 27 21 19 18 16 14 12 10 10 9 9 9 9 8 8 8 7 7 7 7 7 7 6 8 10 10 10 10 9 8 13 29 52 71 81 86 88 88 89 91 92 94 95 95 96 96 95 97 100 99 99 99 99 98 98 100 100 99 101 95 89 93 95 92 97 100 99 100 101 100 97
49 52 55 58 58 56 52 49 50 52 49 45 42 37 29 23 20 19 17 15 13 11 10 10 10 10 10 10 10 10 9 8 9 8 7 8 8 7 9 11 12 11 11 10 9 10 21 40 60 76 85 88 88 86 85 86 89 92 95 97 96 95 97 99 99 98 97 95 96 99 100 99 101 98 93 95 94 91 96 101 99 99 100 100 100
52 56 60 62 61 60 56 53 54 54 50 46 43 37 29 24 21 19 18 16 14 13 12 11 11 11 12 12 12 12 11 10 10 10 9 9 9 10 10 11 13 14 13 11 11 10 10 16 31 51 72 85 87 84 82 79 79 82 86 92 98 97 94 94 97 95 93 94 97 100 100 99 100 100 99 99 98 97 99 100 100 100 99 97 97
57 62 66 67 66 64 61 58 57 55 51 47 43 35 28 24 21 20 18 16 15 15 14 14 14 14 14 14 15 14 14 13 12 11 11 11 11 12 12 13 14 15 15 14 12 12 11 11 13 24 45 68 80 83 83 79 77 80 84 90 98 100 93 89 93 96 95 97 100 100 100 100 99 100 101 100 98 99 99 99 100 100 99 97 96
62 68 71 71 70 68 65 62 60 56 52 48 40 32 27 24 22 20 19 18 18 18 17 17 17 18 18 18 19 19 18 17 16 15 14 14 14 15 15 16 16 17 17 16 15 14 13 12 11 12 21 40 60 75 82 81 78 80 87 93 98 100 95 89 91 98 100 99 99 99 100 101 99 99 100 100 99 99 100 99 100 100 100 100 97
68 74 76 75 73 71 68 65 62 58 54 45 35 29 27 24 23 22 21 21 21 21 21 21 21 22 22 22 22 23 22 21 20 19 18 17 17 18 19 19 20 20 19 18 18 17 15 14 13 12 12 18 32 51 70 81 83 80 82 87 92 96 97 95 95 99 100 99 100 100 100 99 99 100 100 99 100 100 100 100 100 100 100 99 98
76 80 79 77 75 73 70 67 64 60 53 41 31 29 27 25 25 24 23 23 23 24 25 25 25 25 25 25 25 26 26 25 24 23 22 22 22 21 22 23 22 22 22 21 20 20 19 18 16 14 13 12 14 23 40 61 79 85 85 84 85 90 98 100 99 99 100 100 100 100 100 100 99 100 100 100 100 100 100 100 100 100 100 100 100
81 83 82 80 78 75 73 69 67 62 51 37 30 30 28 28 28 27 26 25 24 26 27 28 29 29 28 28 28 28 29 28 28 27 26 26 26 25 24 24 24 23 23 22 22 21 20 20 19 17 16 15 13 13 17 28 47 67 79 84 84 86 92 98 100 100 99 100 100 99 99 100 99 100 100 99 99 100 100 100 100 100 100 100 100
85 87 86 83 80 78 76 73 70 62 46 34 31 31 30 30 29 28 27 25 24 26 28 29 31 31 31 31 31 31 31 31 30 30 29 28 27 26 25 24 23 23 22 21 21 20 19 19 20 20 19 18 16 15 13 13 17 29 45 62 75 81 85 89 96 99 100 99 100 100 100 99 100 100 100 100 100 100 100 100 100 100 100 100 100
88 90 88 86 83 81 79 77 72 59 42 33 33 32 31 30 28 26 25 23 24 26 28 30 32 33 33 32 32 33 34 34 33 31 30 30 28 27 26 25 24 23 22 22 21 20 20 19 19 19 20 21 20 18 17 16 14 14 18 29 47 67 81 86 90 95 100 100 99 99 99 100 100 100 99 100 100 100 100 100 99 99 99 100 100
93 93 90 87 85 83 82 79 69 53 39 34 34 32 30 29 27 26 25 25 27 29 30 31 31 31 32 33 35 37 36 35 34 33 31 30 29 28 27 27 26 25 24 24 23 22 22 21 20 20 21 22 22 21 21 19 18 17 16 16 22 37 58 78 90 94 97 100 101 100 100 100 99 100 100 100 100 100 101 100 99 99 100 100 100
96 94 91 88 86 84 83 75 60 46 38 36 34 32 30 28 26 26 26 27 28 29 29 30 30 32 35 37 38 37 36 34 32 31 29 28 27 26 26 25 25 25 25 25 25 24 24 23 22 22 22 22 22 22 23 23 22 21 21 21 21 22 32 57 85 99 100 100 100 99 100 100 100 99 99 100 100 100 101 102 101 100 99 100 100
99 96 92 88 87 86 80 66 51 43 39 37 34 32 30 28 28 27 27 27 28 30 32 34 36 38 39 38 36 33 31 29 27 26 25 24 23 22 22 22 22 22 22 23 23 23 23 24 24 23 22 22 21 21 21 21 23 24 24 24 26 27 27 37 59 79 91 97 101 101 100 100 100 100 100 100 100 100 100 101 101 100 100 100 99
98 95 91 89 88 83 70 56 47 43 40 37 35 36 36 37 37 36 34 34 35 36 38 39 39 38 35 32 30 28 26 24 23 22 20 19 19 18 17 17 16 16 17 17 17 18 19 20 21 22 22 22 22 22 21 21 22 23 25 25 25 27 29 29 34 44 54 66 80 91 99 101 99 100 100 100 100 100 100 100 100 100 100 99 99
97 95 94 91 85 73 60 52 48 44 40 40 41 42 42 40 38 37 37 37 38 38 38 37 34 32 29 27 25 23 22 20 18 17 15 13 12 11 10 10 9 9 9 9 9 10 11 12 13 15 17 19 20 21 22 23 23 23 24 25 25 25 26 28 29 31 34 40 49 64 83 96 101 100 99 100 100 100 100 100 100 100 100 99 100
98 98 95 86 73 63 57 52 47 44 43 45 47 46 42 38 37 37 38 38 38 37 34 31 28 25 23 22 20 18 16 14 11 10 8 7 6 5 5 4 4 4 4 4 4 4 4 5 6 7 9 11 14 17 19 20 22 24 25 26 26 26 26 27 28 29 30 34 38 46 59 75 90 99 100 99 99 100 100 100 100 100 100 99 99
101 97 87 75 66 61 56 50 47 46 47 50 50 46 41 39 40 40 39 38 35 32 28 24 22 21 19 17 15 12 9 8 6 5 4 3 3 3 3 2 2 2 2 2 2 2 3 3 3 3 4 4 6 8 11 13 16 19 22 24 26 28 29 30 32 32 32 32 34 39 45 54 71 92 101 101 100 100 99 99 100 100 100 100 99
97 87 77 70 66 61 54 50 50 51 51 52 52 47 43 43 43 41 38 34 29 25 22 21 19 17 15 11 8 7 5 4 3 3 2 2 2 3 3 3 3 3 3 3 3 3 3 3 3 3 3 3 3 3 4 6 7 10 13 16 19 22 24 27 31 35 38 38 37 38 40 43 52 70 86 96 100 101 99 99 100 100 99 100 101
87 79 74 71 67 60 53 53 56 56 54 55 54 49 46 45 42 38 32 27 23 21 20 18 15 11 8 6 5 4 3 3 3 3 3 3 3 3 3 3 3 3 3 4 4 4 4 3 3 4 3 3 3 3 3 3 3 3 4 6 8 10 13 16 20 24 29 34 38 39 40 41 42 47 58 72 86 97 101 100 99 100 100 99 99
79 77 76 73 67 59 55 59 62 60 57 58 57 51 47 44 37 31 25 22 21 20 17 13 9 6 5 4 3 3 3 3 3 3 3 3 3 4 4 4 4 4 4 4 4 4 4 4 4 4 4 4 4 3 4 4 3 3 3 3 3 3 4 6 8 10 13 18 24 30 35 40 43 44 46 50 60 78 95 101 99 98 99 100 100
80 81 77 71 64 57 57 65 68 64 62 62 57 50 44 37 29 24 22 21 19 15 11 7 5 4 3 3 3 4 4 4 4 4 4 4 4 4 4 4 4 5 5 5 5 5 5 5 5 5 4 5 5 4 4 4 4 4 3 3 3 3 3 3 3 4 5 6 9 13 19 26 34 41 46 47 48 56 75 93 101 100 97 98 100
84 80 73 67 64 61 64 69 70 67 66 62 53 44 36 29 24 23 22 19 14 9 6 5 4 3 3 4 4 5 5 5 5 5 5 4 4 4 5 5 5 5 5 5 5 6 5 5 5 6 6 5 5 5 5 4 4 4 4 4 4 3 3 3 3 2 3 3 3 4 6 9 15 23 33 43 49 51 57 71 87 98 101 100 98
80 77 76 74 72 69 70 71 70 69 65 56 45 35 28 24 23 23 19 13 8 5 4 4 3 4 4 5 5 6 6 6 6 6 6 5 5 5 5 6 6 6 6 6 6 6 7 6 6 6 6 6 6 5 5 5 5 4 4 4 4 4 3 3 3 3 3 2 3 3 3 3 4 8 12 21 33 45 52 57 65 77 90 99 102
77 78 76 74 72 73 74 74 72 66 56 45 35 28 25 24 22 18 11 7 5 4 4 4 4 5 5 6 6 7 7 7 7 7 6 6 6 6 6 7 7 7 7 7 7 7 7 7 7 6 6 6 6 6 6 6 5 5 5 5 4 4 4 4 3 3 3 3 3 2 3 3 2 3 4 5 10 20 33 45 53 59 67 80 93
72 68 64 66 73 76 74 69 63 53 42 34 29 26 25 22 17 10 6 4 4 4 4 4 5 6 6 6 7 7 8 8 8 8 8 7 7 7 7 7 8 8 8 7 8 8 8 7 7 7 7 7 7 7 7 6 6 6 6 5 5 5 4 4 4 4 3 4 3 3 3 3 3 2 2 3 3 5 9 19 32 44 53 62 76
62 57 58 66 73 71 63 55 47 39 33 29 28 26 23 16 10 5 4 4 4 4 5 5 6 6 7 7 7 8 8 9 9 9 9 8 7 8 8 8 8 8 8 9 9 9 9 9 9 9 8 8 8 8 7 7 7 7 6 6 6 5 5 5 4 4 4 4 4 4 3 3 3 3 3 2 3 3 4 4 8 17 29 41 55
57 58 63 69 67 59 50 42 35 31 29 29 27 23 17 9 5 4 4 4 5 5 5 6 6 7 7 7 8 8 9 9 10 10 9 8 8 9 9 9 9 9 10 10 10 10 10 10 10 10 10 9 9 9 8 8 8 7 7 7 6 6 6 6 5 5 5 4 4 4 4 4 4 4 4 4 3 3 3 4 4 4 7 14 23
68 72 72 67 57 46 38 32 29 29 30 28 24 17 9 5 4 4 4 4 5 5 6 7 7 7 8 8 8 9 9 9 10 10 9 9 9 9 10 10 10 11 11 11 11 11 12 12 11 11 11 11 10 10 9 9 9 8 8 8 7 7 7 6 6 5 5 5 5 4 4 5 5 5 5 5 5 5 4 3 4 4 4 4 6
77 74 65 53 42 35 31 30 30 30 28 23 16 9 5 4 4 4 5 5 5 6 7 7 7 8 9 9 9 10 10 10 10 10 10 9 10 10 11 11 11 12 12 13 13 13 14 14 13 13 12 12 11 11 10 10 10 9 9 9 8 8 7 7 7 7 6 6 6 5 5 5 5 6 6 5 5 5 6 5 5 5 4 4 5
69 61 50 40 34 31 30 30 30 29 24 16 9 4 3 4 5 5 5 6 6 7 7 7 8 9 10 10 11 11 11 11 11 10 10 10 10 11 11 12 13 13 13 14 14 15 15 15 15 15 14 13 13 12 12 12 11 11 10 10 9 9 9 8 8 7 7 7 6 6 6 6 6 6 6 6 6 5 6 6 6 6 6 6 5
55 47 39 35 32 32 32 33 31 25 17 8 4 4 4 5 5 5 6 6 6 7 7 7 9 9 10 10 11 11 12 12 11 11 10 10 11 12 13 13 13 14 15 16 16 17 17 17 17 17 16 15 14 14 13 13 13 12 12 11 11 10 10 10 9 9 8 8 8 7 6 6 6 7 7 7 6 6 7 8 9 9 9 8 7
44 38 35 34 35 36 37 34 27 17 9 5 4 4 5 5 6 6 6 6 7 7 7 8 9 9 10 10 11 12 12 12 12 11 11 12 13 14 14 15 15 16 17 18 18 18 19 19 19 19 18 17 16 15 15 14 14 14 13 13 12 12 11 11 11 10 10 9 9 8 8 7 6 7 8 8 8 7 9 11 13 16 16 15 16
37 36 36 39 41 42 37 28 16 8 5 4 4 5 5 6 6 6 6 7 7 7 7 8 9 9 10 11 12 12 13 13 12 12 12 13 15 15 16 17 17 18 18 19 19 20 20 20 19 20 19 19 18 17 16 16 15 15 15 14 14 13 13 13 12 11 11 11 10 10 9 8 7 7 8 9 10 10 12 15 20 26 30 31 34
37 37 40 45 45 39 27 14 7 4 4 5 5 5 5 5 5 6 7 7 7 8 8 8 9 10 11 12 13 14 14 13 12 13 15 16 16 17 18 19 19 19 19 19 20 21 21 20 20 20 20 20 19 18 18 18 17 16 16 16 15 15 14 14 14 13 12 12 12 11 11 10 9 8 9 10 11 12 15 20 27 34 41 46 52
39 42 47 48 39 24 12 6 4 4 5 5 6 6 5 5 6 7 7 7 8 8 9 9 10 11 12 14 15 15 14 14 14 15 17 17 18 20 21 20 20 19 19 19 20 21 20 20 20 20 21 21 21 20 19 19 19 18 18 17 17 17 16 16 16 15 14 14 13 13 13 12 11 10 10 11 12 12 15 22 31 38 45 52 59
45 50 49 39 23 10 5 5 5 5 5 6 6 5 6 6 7 7 8 8 9 9 10 11 12 13 15 16 16 15 15 16 17 18 19 20 22 23 23 22 21 19 18 19 20 20 20 19 19 20 22 22 22 22 21 21 20 20 20 19 19 19 18 18 18 17 16 16 15 15 14 14 14 12 11 11 12 13 14 19 29 39 46 52 59
54 51 39 22 9 5 5 5 5 6 6 6 5 6 7 8 8 9 9 10 10 11 11 12 13 15 16 16 16 16 17 19 19 20 21 23 25 26 25 23 20 18 18 19 20 20 20 20 20 21 22 23 23 23 22 22 22 22 21 21 21 21 20 20 20 19 19 18 17 17 16 16 16 15 14 13 13 15 15 16 23 35 45 52 57
55 40 22 10 5 5 5 5 6 7 6 5 6 7 8 9 9 10 11 12 12 13 13 14 16 17 17 18 18 19 20 21 21 22 24 26 28 27 24 20 18 18 18 19 20 20 20 20 20 22 23 24 24 24 24 24 23 23 23 23 23 23 22 22 22 21 21 20 19 19 18 18 18 18 18 16 14 15 16 17 18 25 37 48 55
40 20 9 6 5 5 6 6 7 6 6 6 8 9 10 11 11 12 13 13 14 15 16 18 19 19 20 21 22 22 22 22 23 25 27 29 28 25 21 18 18 19 20 20 20 20 21 21 22 23 24 25 25 25 25 25 24 24 25 25 25 24 25 24 24 24 24 23 22 21 20 20 20 20 20 20 18 17 17 18 19 19 26 38 49
20 8 5 5 5 6 6 7 6 6 6 8 10 11 12 13 13 14 14 15 16 18 20 22 22 23 24 24 24 23 24 25 27 29 30 29 26 22 19 19 19 20 20 21 21 22 22 23 23 24 25 26 27 27 27 27 26 26 26 26 27 27 26 26 27 27 26 26 25 24 23 22 22 21 21 22 22 21 19 19 20 20 21 25 36
7 5 6 6 6 7 7 6 6 7 9 11 12 14 15 15 16 16 16 17 19 21 23 24 25 25 25 25 25 26 28 30 31 30 28 26 23 21 20 20 20 21 22 22 23 23 24 24 25 26 27 28 29 29 29 29 28 28 28 28 29 29 29 29 29 29 29 29 28 27 26 25 24 24 24 23 23 24 23 22 22 23 23 22 25
5 6 6 6 7 7 6 7 8 10 12 14 15 16 18 18 19 19 19 20 22 23 25 26 26 26 27 29 30 32 33 32 30 28 26 24 23 23 23 23 23 23 24 24 25 25 26 27 27 28 29 30 30 31 32 32 31 31 31 31 31 31 31 31 32 32 32 32 31 30 30 29 27 26 26 26 26 26 26 26 25 25 26 26 25
6 6 6 6 7 6 7 9 11 14 16 18 19 20 21 22 22 22 22 22 24 25 26 27 29 30 32 34 34 34 32 30 28 26 26 25 26 26 26 27 27 27 27 27 28 28 29 30 30 30 31 32 33 33 34 34 34 34 33 33 34 34 34 33 34 34 35 35 35 34 33 32 31 30 29 28 28 28 29 29 29 28 28 29 30
7 7 6 6 6 7 10 13 15 17 20 21 22 23 24 26 27 27 27 27 28 29 31 33 34 35 36 35 33 32 30 29 28 27 27 27 28 28 29 30 30 30 30 31 31 32 33 34 34 34 34 34 35 35 36 37 37 37 37 37 37 37 37 37 37 37 37 37 38 38 37 36 34 34 33 31 31 31 31 32 32 33 32 31 32
7 6 6 7 9 11 14 17 18 20 22 24 25 26 28 29 31 31 32 33 34 34 35 36 36 35 34 32 31 31 30 30 29 29 28 28 29 30 31 32 32 33 33 34 34 35 37 38 38 39 40 39 39 38 38 39 40 41 41 41 40 41 41 41 40 40 40 41 41 41 41 40 39 38 37 36 35 34 33 33 33 35 36 36 35
7 6 7 9 13 16 18 19 21 23 24 25 26 28 29 31 33 33 34 34 35 35 35 34 33 32 32 31 31 31 31 30 30 30 30 31 31 31 32 33 34 35 35 36 37 38 39 41 43 45 46 46 46 44 43 42 42 43 45 45 45 45 45 45 45 45 44 44 45 45 45 44 43 42 41 40 39 38 37 37 36 35 36 38 39
6 7 9 12 15 18 20 22 24 25 25 25 27 28 30 31 31 32 32 32 32 32 32 31 31 31 31 31 31 31 31 31 31 31 31 32 32 33 33 34 34 35 37 38 40 42 43 44 46 48 50 52 53 51 49 47 46 46 47 49 49 49 49 49 49 49 48 47 47 48 48 48 48 47 46 45 44 43 42 41 40 39 39 38 40
Wind_Speed
23 23 24 24 25 26 27 27 28 28 27 26 26 26 26 26 25 25 25 25 26 26 26 26 26 27 27 28 28 29 29 30 30 30 30 30 29 29 29 29 29 28 26 23 21 19 17 17 16 16 16 17 18 19 20 21 22 23 25 27 27 25 26 29 31 31 31 34 39 41 41 41 39 37 37 36 34 33 36 39 40 40 41 41 39
23 24 25 25 26 27 28 28 29 29 27 27 27 27 27 26 26 26 26 26 26 26 26 26 26 27 27 28 28 29 30 30 31 31 31 30 29 28 28 28 27 27 26 24 22 21 19 18 18 18 17 18 19 20 20 21 22 24 25 26 26 25 26 29 33 34 32 33 39 42 42 40 37 34 35 37 37 37 39 42 43 42 42 42 39
24 25 25 26 27 28 29 29 30 29 28 28 28 28 27 27 27 27 26 26 26 26 26 26 26 27 27 28 29 29 30 30 31 31 31 31 29 27 26 27 27 26 26 25 23 22 21 20 19 19 19 19 19 20 20 20 21 22 24 26 25 24 27 28 30 34 35 35 40 44 45 42 37 33 34 37 39 40 41 42 43 44 42 38 35
25 25 25 27 29 29 30 30 30 30 30 29 29 28 28 28 27 27 27 27 27 26 26 26 26 27 27 28 29 30 31 31 31 31 31 31 30 28 26 25 25 25 25 25 23 22 21 20 20 20 20 20 20 18 16 16 18 18 21 26 27 26 28 29 30 34 37 38 41 44 45 41 37 35 35 37 38 39 41 43 43 43 40 35 34
26 26 27 28 29 30 31 31 31 31 31 30 30 29 29 28 28 28 28 27 27 27 27 26 26 26 27 28 29 30 31 32 32 32 32 31 30 29 27 25 24 24 24 24 24 23 21 20 20 20 20 20 20 18 16 15 16 17 19 23 25 25 26 27 28 31 36 39 41 42 40 38 39 38 37 37 38 38 40 43 43 42 40 37 37
26 27 28 29 30 31 31 31 32 32 32 32 31 30 30 29 29 28 28 27 27 27 27 26 26 26 27 28 29 30 31 31 32 32 32 31 30 30 29 26 24 23 23 23 24 23 22 21 20 19 19 20 20 19 18 17 17 17 18 19 21 23 25 26 26 27 29 31 35 37 36 34 35 38 38 37 37 37 39 42 43 42 40 38 37
27 28 29 30 31 32 32 32 33 33 33 33 32 31 30 29 28 28 27 27 26 26 26 26 27 27 27 28 29 30 31 31 31 31 31 30 30 29 28 27 25 23 22 22 23 23 23 22 22 20 19 19 20 20 20 19 18 18 18 18 19 21 23 24 25 26 26 26 28 31 32 29 29 31 34 34 35 37 39 41 41 40 38 37 37
28 29 30 31 31 32 32 33 34 34 34 34 32 31 30 29 28 27 27 26 26 26 26 26 27 27 28 28 29 29 31 31 31 31 30 30 29 28 27 27 26 24 22 21 21 22 23 22 22 21 21 20 20 20 20 20 20 20 20 19 19 19 19 18 19 21 23 23 23 25 27 27 26 26 29 31 33 34 36 37 37 37 38 38 39
29 30 30 31 31 32 32 33 34 34 34 33 32 31 30 29 28 27 26 26 26 26 26 27 27 27 28 28 28 29 30 31 31 30 30 29 28 27 26 25 25 25 24 22 21 21 22 23 22 21 21 21 21 20 20 21 22 21 20 20 19 18 17 16 15 16 17 18 18 19 23 24 24 24 27 30 32 32 32 34 35 36 37 38 39
30 30 30 31 32 32 33 33 33 33 33 33 31 30 29 28 27 26 26 25 26 26 27 27 27 28 28 29 29 29 29 30 30 30 29 28 27 26 25 24 23 24 24 24 23 22 22 23 23 23 22 21 21 21 21 22 22 23 23 21 20 19 17 16 16 16 16 17 17 18 20 22 22 23 25 28 31 32 32 32 33 35 37 38 39
30 31 31 32 33 33 33 33 33 33 33 32 31 30 29 28 27 26 26 26 26 26 27 27 27 28 28 29 29 29 30 30 30 29 29 28 27 26 25 25 24 23 24 24 24 24 23 23 23 24 23 23 22 21 21 22 22 23 25 24 23 21 18 16 17 18 19 19 19 21 23 23 24 25 26 27 29 32 33 33 34 35 37 38 39
31 31 32 33 33 33 33 33 33 33 33 32 31 29 28 28 27 27 27 27 27 28 28 28 28 28 29 30 30 30 29 29 29 28 28 27 27 26 26 26 25 25 25 24 25 25 25 24 24 24 24 25 24 23 22 22 22 23 24 25 26 24 21 18 18 19 21 21 22 23 25 26 27 28 30 31 31 31 32 33 34 35 37 38 40
32 32 33 33 33 33 33 33 32 33 32 31 30 29 28 28 28 28 28 29 29 29 29 29 29 30 30 30 30 30 29 28 28 28 27 27 27 26 26 26 26 26 26 26 26 26 26 26 26 26 25 25 26 26 25 24 24 23 24 25 26 27 26 24 22 21 21 21 23 24 26 28 28 30 32 34 34 33 32 32 34 35 37 38 38
32 32 32 33 32 32 32 32 32 32 32 31 30 29 29 28 28 29 29 29 29 30 30 30 30 30 30 30 29 29 28 28 27 27 27 27 27 27 27 28 28 28 28 28 28 28 27 27 27 28 28 27 27 27 27 28 27 26 26 25 26 27 27 27 27 26 24 24 24 25 27 29 30 31 32 34 35 36 34 33 34 35 37 38 38
31 32 32 32 32 32 32 32 32 32 31 30 29 29 28 28 28 29 29 29 29 29 29 30 30 29 29 29 28 28 27 27 27 27 27 28 28 29 29 30 30 30 30 30 30 30 29 29 28 28 29 29 29 28 28 29 30 30 29 28 27 27 27 26 27 28 29 29 28 26 27 30 32 33 34 34 35 37 37 36 36 36 37 38 39
31 31 32 31 31 31 32 32 32 31 30 29 28 28 28 28 28 29 29 28 29 29 29 29 28 28 27 27 27 27 27 27 28 28 29 29 30 31 31 31 32 32 31 31 31 31 31 31 30 30 30 30 30 30 30 30 31 31 31 30 30 29 28 26 26 28 30 31 30 29 29 31 32 33 35 36 36 37 38 38 38 36 36 38 40
30 30 30 30 31 31 32 31 30 29 28 28 27 27 27 28 27 27 27 27 27 27 27 27 26 26 27 27 27 28 29 30 30 30 31 31 32 32 32 32 33 33 33 33 33 33 33 33 32 32 32 32 32 32 32 32 32 33 33 33 32 31 29 28 28 30 32 32 31 30 31 32 33 34 35 36 37 38 39 39 39 38 37 38 39
29 29 29 30 31 31 31 30 28 27 27 26 26 26 26 25 25 24 24 24 25 25 26 26 26 27 28 29 30 30 31 31 31 31 31 31 31 31 32 32 33 33 33 33 33 33 33 33 34 34 34 34 35 35 35 35 35 36 36 36 36 35 33 32 31 32 34 34 33 32 32 32 33 34 34 35 37 38 40 40 39 38 37 37 37
28 29 29 29 29 29 29 28 27 26 26 25 25 24 24 24 24 24 24 25 25 26 27 27 28 29 30 31 31 31 31 31 30 31 31 31 31 32 32 32 33 33 34 34 34 34 34 34 34 34 34 35 36 37 37 38 38 38 39 39 40 39 38 37 36 35 35 35 35 34 34 34 35 35 34 34 35 36 38 41 40 37 35 35 36
28 29 28 27 27 27 27 26 25 25 25 24 24 24 24 24 24 25 26 26 27 28 29 30 30 31 31 30 30 29 29 30 30 30 31 31 31 31 31 31 31 31 31 32 32 33 33 34 34 34 35 35 36 37 38 39 40 40 40 40 41 42 42 41 41 40 39 38 37 36 35 35 36 36 35 33 32 34 35 37 39 40 38 38 38
27 27 26 25 26 26 25 25 24 24 24 24 24 25 25 25 25 26 27 28 29 30 30 31 30 30 29 29 29 29 29 30 30 30 29 29 28 28 27 27 27 27 27 27 27 28 28 29 30 31 32 34 35 36 38 39 40 42 42 42 42 42 43 43 43 43 42 41 40 39 39 37 36 37 36 31 29 32 34 33 35 38 41 42 42
26 25 24 25 25 25 24 24 24 24 24 24 25 26 25 25 26 27 28 29 30 30 30 29 29 28 28 28 28 29 29 28 27 26 25 25 24 24 24 24 24 24 24 25 25 25 25 26 27 27 28 29 30 32 33 35 38 40 42 44 44 44 44 44 44 44 44 44 44 43 42 41 40 40 39 36 32 33 36 35 35 37 39 41 43
24 24 24 24 25 24 24 23 24 25 25 25 26 26 26 26 27 29 29 30 29 28 27 27 27 26 27 27 27 26 25 24 23 23 22 22 22 22 23 23 24 24 25 25 26 26 26 26 27 27 27 27 28 28 29 30 31 33 35 38 41 44 46 47 47 46 45 45 46 45 45 45 44 43 43 42 39 37 37 37 37 38 39 40 41
23 23 24 24 24 24 23 23 24 25 26 26 26 26 26 27 28 29 28 28 26 26 25 25 25 25 26 25 24 23 22 22 22 22 22 22 22 23 23 24 25 26 26 27 27 27 27 27 27 28 28 28 28 28 29 29 30 30 31 32 34 36 40 43 46 48 48 48 47 47 46 46 47 47 46 46 45 43 41 40 39 38 38 38 40
23 23 24 24 24 24 24 25 25 26 26 26 26 26 27 28 28 27 26 25 24 24 24 24 24 24 24 23 22 21 21 22 22 22 22 22 23 23 24 25 26 27 27 27 27 28 28 28 28 29 29 29 29 29 29 30 30 30 30 30 31 32 33 35 38 42 45 48 49 49 49 48 48 48 49 49 48 46 45 45 45 43 40 39 38
22 23 24 25 25 25 25 26 27 27 26 26 26 27 27 27 26 24 24 23 23 23 23 23 23 22 21 21 21 21 22 22 22 22 23 23 23 24 24 25 26 27 27 27 27 27 28 28 28 28 28 28 28 28 29 29 29 29 30 30 31 31 32 32 33 35 38 41 45 48 50 51 50 49 50 50 51 50 48 49 51 51 49 46 44
23 23 24 24 25 26 27 27 27 26 25 25 26 27 26 25 23 22 22 22 21 21 21 22 21 20 20 21 21 21 22 22 23 23 23 23 23 24 25 26 26 27 27 27 27 27 27 27 27 27 27 27 27 28 28 29 29 30 30 31 31 31 31 31 32 32 33 35 38 41 45 49 51 51 51 51 52 53 52 52 53 56 56 55 52
22 23 23 23 24 25 25 25 24 24 24 25 26 25 23 22 21 21 21 20 20 20 20 20 20 20 20 21 21 21 22 22 23 23 23 23 24 24 25 26 26 26 26 26 26 26 26 27 27 27 27 27 27 28 28 29 29 30 30 31 31 32 32 33 33 33 33 33 33 35 38 42 46 49 51 51 52 53 54 55 55 57 59 59 57
23 23 23 23 23 23 22 22 22 23 24 25 24 22 21 20 20 20 19 19 19 20 20 20 20 20 21 21 21 22 22 23 23 23 23 23 24 25 25 25 25 25 25 25 26 26 27 27 27 27 27 27 28 28 28 29 29 30 31 31 31 32 32 33 34 34 34 34 33 32 33 35 38 42 46 49 50 51 54 56 57 57 58 60 60
24 24 23 23 22 22 22 22 23 24 23 22 20 19 19 19 18 18 18 19 19 20 20 21 21 22 22 22 23 23 23 23 23 22 23 23 23 24 24 24 24 24 25 25 26 26 26 26 27 27 27 27 27 28 28 29 29 30 30 31 31 32 32 33 34 35 36 36 35 33 32 31 32 34 38 42 45 47 49 52 55 57 58 59 60
24 23 23 22 22 22 23 23 23 22 21 19 19 18 18 18 17 17 18 19 20 20 21 22 23 23 24 24 24 24 24 23 22 22 22 22 23 23 23 23 23 24 25 25 26 26 26 27 27 27 27 27 27 27 28 28 29 29 30 31 31 32 33 33 34 36 37 38 37 36 33 31 30 29 31 34 37 41 43 46 49 53 56 57 58
22 21 21 22 23 23 23 22 21 20 19 18 18 18 17 17 16 17 18 19 20 21 23 24 25 25 25 25 24 24 24 23 23 22 22 22 22 22 22 22 23 24 24 25 26 26 26 27 27 28 28 28 28 27 28 28 28 29 30 31 31 32 32 33 34 35 37 39 39 39 36 33 31 29 28 28 30 33 36 38 41 44 48 51 53
20 21 22 23 23 23 22 20 19 18 18 18 17 17 16 16 16 18 19 20 21 22 24 25 25 25 25 24 24 24 23 23 22 22 22 22 22 22 22 23 23 23 24 25 26 26 27 27 28 28 28 28 28 28 28 28 28 29 30 30 31 31 32 33 34 35 37 39 40 41 39 36 33 30 28 26 26 27 29 31 33 36 39 42 45
21 22 23 23 23 21 19 18 18 18 18 17 16 15 15 16 17 18 19 21 22 24 25 25 25 25 24 24 24 23 23 22 21 21 21 21 22 22 22 23 23 23 24 25 26 27 27 28 28 28 29 29 29 29 29 29 29 29 30 30 31 32 32 33 34 35 36 38 40 41 41 39 36 33 30 27 25 24 25 26 27 29 31 34 37
22 23 23 22 21 19 18 18 18 18 17 16 15 15 16 17 18 19 21 22 24 25 25 25 25 25 25 24 23 22 21 21 20 20 20 21 21 22 22 23 23 24 25 26 27 27 28 28 29 29 29 29 29 29 29 29 29 30 30 30 31 31 32 33 33 34 35 36 38 40 41 41 39 36 33 30 26 23 22 22 23 24 26 27 29
23 23 22 20 19 18 18 18 18 18 17 16 15 16 16 17 19 20 22 23 25 25 25 25 25 25 25 24 23 22 20 20 19 19 20 20 21 22 22 23 23 24 24 25 26 28 29 29 29 29 29 29 30 30 30 30 30 30 30 30 30 31 31 32 32 33 34 35 36 38 40 41 40 38 36 33 29 25 22 21 20 20 21 22 23
22 21 20 19 18 19 19 19 18 17 16 16 16 16 17 18 20 21 23 24 25 25 25 25 25 25 25 24 23 21 20 19 19 19 19 20 21 22 23 23 23 24 24 25 26 28 29 30 30 30 30 30 30 30 30 30 30 30 30 30 30 30 30 31 32 33 34 34 35 36 38 39 40 39 37 35 32 28 24 21 20 19 19 19 20
21 20 19 19 19 19 19 18 18 17 16 16 17 17 18 20 21 23 24 25 25 25 25 25 25 25 24 23 22 20 19 19 19 19 19 20 21 22 23 24 24 24 25 25 26 28 29 30 30 30 30 30 30 31 31 31 31 31 31 31 31 30 30 31 31 32 33 34 34 35 36 38 39 38 37 35 33 30 26 23 20 19 19 19 18
19 19 19 19 19 19 19 18 17 16 17 17 18 18 19 21 22 24 24 24 25 25 25 25 24 24 22 21 20 19 18 18 18 19 20 21 22 23 24 24 25 25 25 26 27 28 29 30 30 30 30 30 30 31 31 31 31 31 31 31 31 31 31 31 31 31 32 33 33 34 34 35 37 37 37 35 33 31 28 24 21 19 19 19 19
19 19 20 20 20 19 19 18 17 17 17 17 18 19 21 22 23 24 24 24 24 24 24 24 23 21 20 19 18 17 17 17 18 19 20 21 22 24 25 26 26 26 26 26 27 28 29 30 30 30 30 30 30 31 31 31 31 31 31 31 31 31 30 30 30 30 31 32 32 32 33 33 34 35 36 35 33 31 28 25 22 20 19 19 19
20 20 20 20 20 19 19 18 18 18 17 18 19 20 22 23 23 24 24 24 24 24 24 23 22 20 18 17 17 16 16 17 18 19 20 22 23 25 26 27 27 27 27 27 27 28 29 30 30 30 29 29 30 30 31 31 32 31 31 31 30 30 30 30 30 30 30 31 31 32 32 32 33 34 34 34 33 32 29 26 23 21 20 19 19
21 21 20 20 20 19 19 18 18 17 17 18 20 21 22 23 23 23 23 23 23 23 22 21 20 19 17 17 16 16 16 17 18 19 20 22 24 26 27 28 27 27 26 27 27 28 29 30 30 30 29 29 29 30 31 31 31 31 31 30 30 30 30 30 30 30 30 30 30 31 31 31 31 32 32 33 33 32 30 28 25 22 21 20 20
21 20 20 20 20 19 19 18 18 18 18 19 20 21 22 22 23 23 23 23 23 22 20 19 18 17 17 16 16 17 17 18 19 20 22 24 26 27 27 27 26 26 26 27 28 28 29 30 30 30 29 29 29 30 31 31 31 31 31 30 30 30 29 29 29 30 30 30 30 30 30 31 30 31 31 31 32 32 31 29 26 24 21 20 20
20 21 21 21 20 19 18 18 17 18 19 19 20 21 21 22 22 22 22 22 21 20 18 17 17 16 16 17 17 17 18 19 20 22 24 25 27 27 26 26 26 26 26 27 27 28 29 29 29 29 29 29 30 30 31 31 31 31 31 31 30 30 30 29 29 29 29 29 29 30 30 30 30 30 30 30 30 31 30 30 28 26 23 21 19
21 22 21 21 20 18 18 17 18 18 19 19 20 20 20 21 21 22 21 20 19 18 17 17 16 16 17 17 18 18 19 21 22 24 25 26 26 26 26 26 26 26 27 27 28 28 29 29 29 29 29 29 30 30 30 31 31 31 31 31 31 31 30 30 29 29 29 29 29 29 29 30 30 30 30 29 29 29 30 30 29 27 25 23 21
23 22 21 20 19 18 17 17 18 18 18 18 19 19 19 20 20 20 20 18 17 16 16 16 16 16 17 17 18 19 20 22 23 24 25 25 26 26 26 27 27 27 28 28 28 29 29 29 30 29 29 29 30 30 30 31 31 31 31 31 31 31 30 30 30 29 29 29 29 29 29 29 29 30 30 29 29 29 29 29 29 28 27 25 23
23 22 21 20 18 17 17 17 17 17 17 17 17 18 18 18 18 18 17 16 16 15 15 16 16 16 17 17 18 20 21 22 24 24 25 25 25 26 27 27 28 29 29 29 29 30 30 30 30 30 30 30 30 30 31 31 31 31 31 31 31 31 31 31 30 30 29 29 29 28 28 28 29 29 29 29 29 29 28 28 28 28 28 27 26
22 21 20 18 17 17 17 17 17 16 16 16 16 16 16 16 15 15 15 15 14 14 14 15 15 16 17 18 19 20 22 23 24 24 25 25 26 27 27 28 29 30 30 30 31 31 31 31 31 31 31 31 31 31 31 31 32 32 32 32 31 31 31 31 31 30 30 29 29 29 28 28 28 28 29 29 29 29 28 28 28 28 28 27 27
22 20 19 17 17 17 17 17 16 15 15 15 15 15 15 15 14 14 13 14 14 14 15 15 16 17 18 19 20 21 22 23 24 25 25 26 27 27 28 29 29 30 31 31 32 32 32 32 32 32 32 32 32 32 32 32 32 32 32 32 32 32 31 31 31 31 31 30 30 29 29 28 28 28 28 28 29 29 28 28 27 27 27 27 27
21 20 18 17 17 17 17 16 16 15 15 14 14 14 15 15 14 14 14 15 15 16 16 17 18 19 20 21 22 22 23 24 24 25 26 27 27 28 29 29 30 31 32 32 33 33 33 34 34 34 33 33 33 33 33 33 33 33 33 32 32 32 32 32 32 31 31 31 30 30 29 29 29 28 28 28 28 28 29 28 28 28 27 27 27
21 19 18 18 18 17 17 16 16 15 15 15 15 15 15 15 15 16 16 16 17 18 18 19 19 20 21 22 23 23 24 25 25 26 27 27 28 29 30 31 31 32 32 33 33 34 34 35 35 35 35 35 34 34 34 34 34 34 33 33 33 33 32 32 32 32 32 31 31 31 31 30 30 29 29 29 28 28 29 29 28 28 28 28 27
Wind_Direction
275 278 282 286 290 293 295 298 300 302 305 307 309 307 304 303 304 306 307 309 310 310 311 311 310 311 312 314 317 320 322 324 326 328 330 333 337 339 341 344 346 344 342 338 332 324 317 309 302 298 293 287 283 281 281 280 279 279 277 278 280 276 270 265 259 254 250 246 245 246 246 245 243 241 240 239 238 240 243 244 242 240 239 237 235
275 279 283 288 292 295 297 298 300 302 305 307 307 306 305 306 308 309 311 311 312 312 312 311 310 310 311 313 316 318 320 323 324 326 329 331 334 337 337 340 343 343 342 339 334 328 323 314 305 300 295 291 285 278 277 279 279 281 282 281 277 273 272 271 261 251 245 242 243 249 252 247 239 240 243 241 240 241 242 242 240 238 237 236 234
275 280 286 290 292 294 296 297 299 303 306 306 306 306 307 310 311 312 313 313 313 313 312 312 311 311 312 313 315 316 318 321 323 325 327 328 330 333 335 336 338 341 341 340 336 331 326 321 314 306 299 299 296 284 274 275 279 282 283 282 278 274 274 273 260 245 237 236 241 249 253 247 241 245 246 243 242 244 244 242 238 236 235 235 235
276 281 285 288 290 292 294 296 298 303 306 306 306 307 309 311 312 313 313 313 313 313 312 312 312 312 312 313 314 315 316 319 322 323 324 325 326 328 331 332 334 336 338 338 337 334 329 324 320 315 307 305 306 297 281 276 279 278 275 275 275 275 275 272 260 243 235 235 239 246 251 247 245 250 250 245 245 247 247 243 239 236 236 235 235
275 279 283 285 288 290 292 295 299 303 306 306 306 308 309 310 311 312 313 313 313 313 312 312 312 311 312 313 314 315 316 317 320 322 322 323 323 324 326 328 330 331 333 334 335 335 333 328 322 320 316 311 308 305 297 289 285 281 276 275 277 277 277 275 264 247 239 240 243 245 247 245 244 247 250 247 245 247 247 243 237 235 235 233 232
273 277 280 283 286 289 292 296 300 304 306 306 306 306 307 309 310 311 313 313 313 313 312 312 311 311 311 312 313 314 315 317 319 319 320 320 321 321 322 325 327 328 329 330 332 332 333 332 328 323 321 318 312 305 299 293 291 290 290 289 287 283 280 278 274 264 255 256 256 250 244 241 238 239 245 247 244 244 244 239 234 233 233 232 232
271 274 278 281 285 289 293 296 299 303 304 304 304 305 306 307 309 311 312 313 313 312 312 311 310 311 311 312 313 314 315 316 317 317 318 318 319 319 320 322 324 326 326 326 327 329 330 330 329 327 323 320 315 309 301 294 292 293 296 297 294 291 288 284 281 279 274 270 265 254 243 236 232 232 235 238 238 237 236 235 233 232 233 234 233
269 273 277 281 285 289 292 295 297 299 300 302 303 304 305 307 309 311 312 313 313 312 311 311 311 311 312 312 313 314 315 316 316 316 316 317 318 318 318 319 321 322 323 322 322 325 326 326 326 326 324 320 317 312 305 298 293 293 295 295 293 292 293 290 283 279 277 274 267 254 242 235 233 232 231 232 233 232 232 232 231 231 232 234 235
268 272 276 280 284 288 291 293 294 296 299 301 303 304 305 307 309 311 312 312 312 311 311 311 311 311 312 312 314 314 315 315 316 316 316 316 317 317 317 318 319 320 320 321 320 320 321 322 322 322 322 320 318 315 309 303 297 293 292 293 292 289 288 288 281 271 271 273 265 248 236 233 236 236 233 233 234 232 231 231 231 231 233 234 236
266 271 275 279 283 287 290 292 293 296 299 301 303 304 305 307 308 309 310 310 310 311 311 311 311 311 311 312 313 313 314 315 315 316 316 316 316 316 316 316 317 317 318 318 318 318 317 317 317 317 318 318 316 314 310 306 302 297 293 290 291 292 289 285 276 266 266 267 254 238 232 234 237 237 235 235 236 235 235 235 235 236 237 237 238
265 269 274 278 282 286 289 291 294 297 300 302 302 303 304 306 307 309 310 310 310 310 310 310 310 310 310 310 311 313 314 314 315 316 316 316 316 316 316 316 315 315 315 314 314 315 315 313 312 312 313 313 313 312 308 305 301 298 295 291 289 290 290 284 271 261 262 263 253 242 237 236 237 237 237 237 238 238 239 239 240 241 241 241 241
264 269 273 277 281 285 289 291 295 298 300 300 301 302 303 305 307 309 310 310 311 310 310 309 309 309 309 310 311 312 313 314 314 315 315 315 316 316 315 315 315 314 313 312 312 312 312 311 309 308 308 307 308 307 305 302 299 295 292 290 287 284 282 278 270 258 252 251 250 246 243 240 238 237 237 237 238 239 240 241 242 243 244 244 244
264 269 273 277 282 285 288 291 295 298 299 299 300 302 304 306 308 309 309 310 310 309 309 308 308 309 310 311 312 313 313 313 314 314 315 315 315 315 315 314 314 313 312 311 310 309 308 308 306 305 303 302 302 302 301 300 297 294 291 288 285 282 278 273 271 266 257 249 246 246 245 243 241 239 238 237 237 239 241 243 244 244 245 246 245
264 269 274 279 283 286 289 292 295 297 298 298 300 302 304 306 307 308 308 308 308 308 308 308 309 310 311 312 313 313 314 314 314 314 315 314 314 314 313 312 312 311 310 309 308 307 306 304 303 301 299 297 296 296 296 296 295 293 290 288 284 280 276 270 268 269 268 263 258 254 251 249 247 246 244 241 239 240 242 244 246 246 247 247 245
265 271 275 279 283 286 290 293 295 296 297 299 301 303 305 306 307 307 307 307 307 307 308 309 310 311 312 313 314 314 314 314 314 314 314 313 313 312 311 310 309 308 307 307 306 305 303 301 299 297 294 292 291 290 289 289 290 290 289 288 286 282 277 271 267 266 267 268 270 268 263 259 256 254 252 250 247 244 243 244 245 246 248 249 246
267 272 275 279 283 287 291 294 295 296 298 300 303 304 306 307 307 306 306 307 308 309 310 311 312 313 314 314 314 314 314 314 313 313 312 311 310 309 308 307 306 305 304 303 302 302 300 299 297 295 292 289 287 285 284 282 283 284 285 284 284 284 282 276 270 267 266 267 269 271 269 265 262 259 255 253 252 249 246 245 246 246 248 251 250
268 272 276 280 284 288 291 293 294 297 299 301 304 305 307 308 308 308 309 309 310 311 312 313 314 314 314 314 314 314 313 312 311 310 310 309 308 307 306 305 304 303 302 301 300 298 297 295 294 292 290 288 285 283 282 280 278 277 278 279 278 278 278 275 270 267 266 266 266 267 267 265 264 262 259 255 254 253 251 248 247 247 247 250 251
268 273 278 282 285 288 290 293 295 298 300 302 305 307 308 310 311 312 313 314 314 315 315 315 315 315 314 314 313 313 312 312 311 311 310 310 309 308 307 306 305 304 303 302 300 298 296 294 292 290 288 286 284 282 281 280 278 276 275 275 275 274 272 271 268 267 266 266 266 266 266 265 264 262 261 259 257 255 253 249 247 246 248 251 252
270 276 279 281 284 287 291 294 297 299 300 303 306 308 309 311 313 316 317 317 317 317 316 315 315 314 314 314 313 313 313 313 313 313 312 311 311 310 308 307 306 305 304 303 301 299 297 295 293 291 288 285 283 281 279 278 278 277 276 275 275 275 274 272 270 267 266 266 266 265 265 266 265 264 262 261 260 258 255 252 248 244 244 247 248
272 276 278 281 285 288 292 296 297 298 300 303 306 308 310 312 315 317 318 318 317 316 315 315 314 314 314 314 314 314 314 314 314 314 313 313 312 311 311 310 310 309 308 306 305 303 302 299 297 294 291 288 285 282 280 278 277 276 277 277 276 275 275 275 274 271 268 266 265 264 262 261 264 267 265 263 262 261 258 256 253 248 242 242 245
272 274 278 282 286 289 293 295 296 298 300 303 305 308 311 313 316 317 317 316 315 315 314 314 314 314 314 315 316 316 316 316 316 316 316 316 317 317 318 318 318 318 317 316 314 313 311 309 306 302 299 296 292 289 285 283 280 278 277 277 277 276 276 276 275 275 272 270 267 266 264 261 260 263 264 262 262 263 260 258 257 253 248 245 248
270 274 278 282 285 289 292 293 295 298 301 302 305 308 311 314 316 315 315 314 314 313 314 314 314 315 316 316 317 318 318 319 319 320 321 322 324 325 326 326 326 326 325 325 324 324 322 320 318 316 312 309 305 301 297 293 289 286 283 281 280 279 277 276 276 275 274 272 270 267 266 263 260 260 260 260 261 261 261 260 259 258 256 253 252
270 274 278 282 286 289 290 292 295 299 301 301 304 308 311 313 313 312 312 312 312 313 314 314 315 316 317 318 319 320 320 321 322 324 325 327 329 329 329 329 329 330 330 329 328 327 326 324 323 321 320 318 316 314 312 308 304 299 294 290 287 284 281 280 278 277 275 273 271 269 266 265 263 260 259 259 258 256 255 256 254 254 254 253 252
271 274 278 282 286 287 288 290 295 299 300 301 304 307 309 309 309 310 310 311 312 313 314 314 316 317 318 319 321 322 323 324 325 327 328 329 328 328 328 329 330 331 330 329 328 327 326 324 323 322 321 320 320 320 319 318 317 314 311 306 300 295 289 285 282 280 278 276 274 271 268 266 264 262 260 259 258 255 252 249 245 240 238 237 237
271 275 279 283 285 285 286 289 294 297 298 300 303 305 306 306 307 309 310 311 312 313 314 315 317 319 320 321 323 325 326 327 327 328 328 327 327 327 329 330 331 331 330 328 328 327 326 326 325 324 323 322 322 321 320 319 319 319 318 317 314 310 304 297 290 285 281 279 276 274 271 268 265 263 261 260 258 256 253 249 245 239 234 232 233
274 278 281 283 284 284 285 288 291 295 296 298 300 302 303 305 307 308 309 310 311 313 315 317 319 319 321 324 326 328 329 329 328 327 326 326 327 328 330 331 330 330 329 329 329 329 328 328 326 325 323 322 320 319 319 319 319 320 321 322 322 320 317 312 306 298 290 284 279 275 273 271 268 265 263 261 259 257 254 250 248 246 243 242 244
277 279 282 283 283 284 285 287 290 291 293 296 298 300 302 304 306 307 307 309 311 314 317 318 319 320 323 327 329 330 329 328 327 327 327 328 329 330 331 331 331 331 331 332 332 331 330 328 327 325 323 323 322 322 322 323 324 324 325 325 326 326 325 323 319 313 305 296 288 281 275 272 270 267 265 262 260 259 256 253 250 250 251 251 252
277 280 282 283 284 285 286 286 287 289 291 294 297 299 301 303 304 305 306 309 313 315 316 317 319 322 325 327 328 328 327 327 327 329 330 330 331 331 332 332 333 334 335 334 334 333 332 331 330 329 329 329 328 328 328 328 328 328 328 328 329 330 331 332 330 327 321 313 303 293 284 276 271 268 266 264 261 259 258 256 254 252 253 255 256
276 279 281 283 284 285 285 285 286 288 291 294 295 297 299 301 302 304 308 311 313 314 314 316 319 321 323 324 324 325 325 326 327 329 330 330 330 331 332 334 335 336 337 337 337 337 336 336 336 336 335 334 333 332 332 331 331 331 331 332 332 334 335 337 338 337 335 330 322 312 301 289 279 272 268 266 263 260 258 257 256 255 253 254 256
275 277 279 280 281 282 283 284 285 288 290 292 294 296 297 299 302 306 309 310 311 312 313 315 317 319 321 321 322 322 322 323 324 325 326 328 329 330 332 334 337 338 339 340 340 340 340 341 341 340 338 337 336 335 334 334 333 333 334 334 335 336 337 339 342 343 343 341 337 329 319 309 297 285 276 270 267 264 261 258 257 256 255 255 255
274 275 276 276 277 279 280 282 284 287 289 290 292 294 296 299 302 306 307 308 309 311 313 316 317 319 320 320 320 320 320 319 320 321 324 326 327 330 333 336 338 340 341 341 340 341 343 343 342 341 340 339 338 337 337 336 336 336 337 337 338 339 340 341 344 346 348 348 347 343 336 326 316 305 294 283 276 271 267 263 259 257 256 255 255
272 272 272 273 275 276 278 281 283 285 287 289 291 292 294 298 301 303 304 306 309 312 315 316 318 318 318 318 318 317 317 317 317 319 322 324 327 329 332 336 338 340 340 339 340 342 344 344 343 343 342 341 340 340 339 339 339 339 339 340 340 341 341 342 344 346 350 352 352 351 347 341 333 323 313 301 291 283 277 272 266 262 259 257 256
267 268 270 271 273 275 277 279 282 283 284 285 286 288 291 295 297 300 303 306 310 313 315 315 316 316 316 316 316 315 315 315 315 317 320 322 325 328 332 336 338 337 337 338 341 343 343 343 343 343 343 342 342 342 341 341 341 341 341 341 341 342 342 343 345 347 350 353 354 355 353 350 345 338 330 318 306 296 289 283 277 272 266 261 259
264 266 268 270 272 274 275 277 277 278 279 280 281 284 288 292 295 299 304 308 311 312 313 314 314 314 314 314 314 313 313 313 313 315 318 320 324 329 333 334 334 334 336 339 342 343 342 342 342 342 342 343 343 343 343 343 343 343 343 342 342 343 344 345 347 348 350 352 354 357 357 356 353 349 344 335 323 310 301 294 288 282 276 270 266
264 266 268 270 271 272 272 272 272 274 275 276 279 282 286 291 295 301 306 308 310 311 312 313 313 313 313 312 312 311 311 311 312 313 316 320 324 328 331 332 332 334 337 340 340 341 341 341 341 341 341 342 343 344 344 344 344 344 344 344 344 345 346 347 348 349 350 352 354 356 358 358 357 355 352 348 340 328 315 307 300 294 288 282 277
264 266 267 268 268 267 267 268 271 272 273 274 277 281 285 291 297 301 305 307 309 311 311 312 312 312 312 312 311 311 310 310 311 313 315 320 325 328 330 332 333 335 336 337 338 339 340 340 340 340 340 341 342 344 344 344 344 344 344 344 345 346 346 347 348 349 350 351 353 356 358 359 359 358 356 354 351 344 334 323 315 309 301 294 290
263 263 263 263 263 263 265 267 269 270 270 271 275 280 285 291 297 301 305 307 309 310 311 311 312 312 313 312 312 311 311 311 311 313 317 322 326 328 330 331 333 333 334 335 337 338 339 339 339 339 339 340 342 343 344 344 344 343 343 344 345 345 346 346 347 349 350 351 353 355 357 359 0 360 358 356 355 353 348 340 332 325 319 311 303
259 259 258 258 259 260 262 264 264 265 266 268 273 280 287 293 298 303 305 307 308 310 311 312 313 314 314 313 313 312 311 311 312 316 320 324 326 328 330 332 333 334 334 335 336 336 337 338 338 338 339 340 341 343 344 344 343 343 343 343 343 344 345 346 348 349 350 351 352 353 356 358 0 1 360 358 356 355 354 350 345 338 333 328 320
255 255 255 256 257 259 259 259 259 260 262 267 275 284 291 297 301 304 306 307 308 310 311 313 314 314 313 312 311 310 310 311 314 318 321 324 327 329 331 332 333 334 334 334 335 335 336 337 338 338 338 339 341 342 343 343 343 343 343 342 343 343 345 346 347 348 349 350 351 352 354 356 359 1 1 359 357 356 354 352 349 345 340 337 332
252 252 253 254 255 255 255 255 256 258 263 272 281 289 295 299 302 304 305 307 308 310 312 312 313 312 311 310 308 308 310 312 316 319 323 325 328 330 331 332 333 333 333 333 334 334 335 337 338 338 338 339 340 342 343 343 343 343 342 342 342 342 343 344 345 346 348 349 350 351 352 354 356 359 1 1 359 357 354 351 348 345 342 339 336
248 249 250 250 251 251 251 252 255 260 268 278 287 293 297 300 302 304 306 308 309 310 311 311 311 311 310 309 309 310 312 314 317 320 323 326 328 330 331 332 332 333 333 333 333 334 335 337 337 338 338 339 340 342 343 343 343 342 342 341 341 341 341 342 343 345 346 348 349 350 351 352 353 356 359 1 1 359 356 352 348 344 342 339 336
245 246 247 247 247 247 249 252 258 265 275 283 290 295 298 300 303 305 307 309 309 310 310 311 312 312 312 312 312 312 313 315 318 321 324 326 328 330 331 332 333 333 333 333 333 334 335 337 337 338 338 339 340 341 343 343 343 342 341 341 340 340 340 340 341 343 344 345 347 348 349 350 351 353 356 359 1 1 359 355 350 345 341 339 337
244 245 244 244 245 246 249 254 262 272 280 287 292 295 298 300 303 306 307 308 309 311 313 314 314 313 313 312 311 312 314 317 321 323 325 327 329 330 331 332 333 334 333 333 334 335 335 336 337 338 338 338 339 341 342 343 343 342 341 341 340 339 339 339 340 341 342 343 345 346 347 348 349 350 352 355 358 360 360 358 355 349 343 338 336
242 240 240 241 243 245 250 258 267 276 284 289 292 296 299 301 304 306 308 309 311 313 315 315 314 312 311 311 312 314 318 321 323 325 326 328 329 331 332 333 334 334 334 334 334 335 335 336 336 337 338 338 339 340 342 342 343 342 342 341 340 339 338 338 339 339 340 341 342 344 345 347 347 348 349 351 353 356 358 359 358 354 348 341 335
237 236 237 238 241 246 254 263 272 279 285 289 293 297 300 303 306 308 310 311 313 314 315 314 313 312 312 314 316 319 322 323 325 326 327 329 330 332 333 334 334 334 334 334 334 334 334 335 335 336 337 338 339 340 341 342 342 343 342 341 340 339 339 338 338 338 338 339 340 342 343 345 346 346 346 347 349 351 354 356 357 357 354 348 341
234 235 236 237 241 249 259 268 275 281 286 291 296 300 303 306 308 310 311 311 313 314 313 313 313 314 316 318 320 322 324 325 326 327 329 331 332 333 334 334 334 334 334 334 334 334 334 335 335 335 336 337 338 339 340 341 342 342 342 341 340 339 338 337 337 336 337 337 338 340 341 343 344 345 345 345 345 346 348 351 353 355 355 353 348
232 234 235 238 244 253 262 270 276 282 287 293 297 301 305 308 310 309 310 311 312 312 313 313 314 316 318 320 322 324 325 326 327 328 330 331 333 334 334 334 334 334 334 334 334 335 335 335 335 335 335 336 337 338 339 340 341 341 341 341 341 339 339 338 336 336 335 336 336 337 339 340 342 343 343 343 343 343 344 345 347 350 351 352 351
231 233 236 242 250 258 265 271 276 281 287 292 297 302 306 309 310 310 311 312 313 313 313 314 315 317 319 320 322 324 325 326 327 328 330 331 332 333 334 334 334 333 334 334 334 335 335 334 334 335 334 335 335 336 337 338 339 340 340 340 340 340 339 338 337 336 334 334 334 335 336 337 339 340 342 342 341 340 340 340 342 344 346 347 348
230 233 238 245 253 259 264 269 274 279 285 291 297 302 306 308 310 313 314 315 315 315 315 315 316 317 318 319 321 322 324 325 326 327 328 330 331 331 332 332 333 333 333 333 334 334 334 334 334 334 334 333 333 334 335 336 337 338 338 338 339 339 339 338 337 336 334 333 332 332 333 334 336 337 339 340 340 339 338 337 337 338 340 341 343
229 234 240 246 252 257 262 267 272 278 284 290 296 300 304 307 310 313 313 313 312 313 313 314 314 315 316 317 319 320 321 322 323 325 326 327 328 329 329 330 331 331 332 332 333 333 333 333 333 333 332 332 332 332 332 333 334 335 335 336 336 336 337 337 336 336 334 333 332 331 331 331 332 333 335 337 338 338 337 336 335 334 334 335 337
230 236 242 248 252 256 261 266 270 276 282 288 293 296 300 304 306 308 309 308 309 309 310 311 312 312 313 314 316 317 318 319 320 321 323 324 324 325 326 327 328 329 329 330 331 331 332 332 332 331 331 331 330 330 329 330 330 331 332 333 333 333 334 334 334 334 333 333 332 331 330 329 329 329 331 333 334 335 336 335 334 332 331 331 331